Location: Albany
(35.0170°S, 117.8920°E)
Time: 02:04:01
(UTC+08:00)

Explorer 7 - Pass Details

Date: 22 January 2021
Orbit: 484 x 677 km, 50.3° (Epoch: 01 March)

Event Time Altitude Azimuth Distance (km) Brightness Sun altitude
Rises 17:56:42 0° 278° (W) 3,021 11.9 15.7°
Reaches altitude 10° 17:59:24 10° 266° (W) 2,095 12.1 15.2°
Maximum altitude 18:03:31 27° 208° (SSW) 1,256 9.4 14.4°
Drops below altitude 10° 18:07:31 10° 149° (SSE) 2,026 9.6 13.6°
Sets 18:10:06 0° 137° (SE) 2,901 10.2 13.1°
